Location: Winthrop
(48.4780°N, 120.1850°W)
Time: 00:58:12
(UTC-07:00)

A-11 Canister half - Pass Details

Date: 06 June 2023
Orbit: 1515 x 1684 km, 47.2° (Epoch: 29 September)

Event Time Altitude Azimuth Distance (km) Brightness Sun altitude
Exits shadow 02:23:56 21° 206° (SSW) 3,025 9.9 -16.4°
Maximum altitude 02:30:08 46° 145° (SE) 2,029 9.4 -16.0°
Drops below altitude 10° 02:38:59 10° 77° (ENE) 3,742 11.5 -15.5°
Sets 02:42:09 0° 71° (ENE) 4,708 12.2 -15.3°
